Location: Chimay
(50.0486°N, 4.3171°E)
Time: 09:59:33
(UTC+00:00)

Cosmos 1741 Rocket - Pass Details

Date: 08 August 2020
Orbit: 761 x 783 km, 74.0° (Epoch: 21 September)

Event Time Altitude Azimuth Distance (km) Brightness Sun altitude
Exits shadow 21:48:18 35° 167° (SSE) 1,215 4.5 -19.0°
Maximum altitude 21:50:15 57° 108° (ESE) 908 4.1 -19.2°
Drops below altitude 10° 21:55:25 10° 31° (NNE) 2,330 6.9 -19.6°
Sets 21:57:51 0° 27° (NNE) 3,265 7.8 -19.8°
